Time,TemperatureF,DewpointF,PressureIn,WindDirection,WindDirectionDegrees,WindSpeedMPH,WindSpeedGustMPH,Humidity,HourlyPrecipIn,Conditions,Clouds,dailyrainin,SoftwareType,DateUTC
2013-02-02 00:01:00,53.4,52.3,30.18,West,270,0.0,3.0,96,0.00,,,0.00,meteohub,2013-02-02 08:01:00,
2013-02-02 00:06:00,53.4,52.3,30.19,West,270,0.0,3.0,96,0.00,,,0.00,meteohub,2013-02-02 08:06:00,
2013-02-02 00:12:00,53.2,52.2,30.19,West,270,0.0,2.0,96,0.00,,,0.00,meteohub,2013-02-02 08:12:00,
2013-02-02 00:17:00,53.1,52.0,30.19,West,270,0.0,2.0,96,0.00,,,0.00,meteohub,2013-02-02 08:17:00,
2013-02-02 00:22:00,52.9,51.4,30.19,West,270,0.0,2.0,95,0.00,,,0.00,meteohub,2013-02-02 08:22:00,
2013-02-02 00:27:00,52.9,51.4,30.19,West,270,0.0,0.0,95,0.00,,,0.00,meteohub,2013-02-02 08:27:00,
2013-02-02 00:32:00,52.7,51.6,30.18,West,270,0.0,0.0,96,0.00,,,0.00,meteohub,2013-02-02 08:32:00,
2013-02-02 00:37:00,52.7,51.3,30.18,West,270,0.0,0.0,95,0.00,,,0.00,meteohub,2013-02-02 08:37:00,
2013-02-02 00:42:00,52.7,51.6,30.18,West,270,0.0,0.0,96,0.00,,,0.00,meteohub,2013-02-02 08:42:00,
2013-02-02 00:47:00,52.9,51.8,30.19,West,270,0.0,0.0,96,0.00,,,0.00,meteohub,2013-02-02 08:47:00,
2013-02-02 00:52:00,53.2,52.2,30.19,West,270,0.0,0.0,96,0.00,,,0.00,meteohub,2013-02-02 08:52:00,
2013-02-02 00:57:00,53.2,52.2,30.19,West,270,0.0,0.0,96,0.00,,,0.00,meteohub,2013-02-02 08:57:00,
2013-02-02 01:02:00,53.4,52.3,30.18,West,270,0.0,0.0,96,0.00,,,0.00,meteohub,2013-02-02 09:02:00,
2013-02-02 01:07:00,53.6,52.2,30.18,West,270,0.0,0.0,95,0.00,,,0.00,meteohub,2013-02-02 09:07:00,
2013-02-02 01:12:00,53.6,52.2,30.18,West,270,1.0,1.0,95,0.00,,,0.00,meteohub,2013-02-02 09:12:00,
2013-02-02 01:17:00,53.6,52.2,30.17,West,270,2.0,2.0,95,0.00,,,0.00,meteohub,2013-02-02 09:17:00,
2013-02-02 01:22:00,53.6,52.2,30.17,West,270,2.0,2.0,95,0.00,,,0.00,meteohub,2013-02-02 09:22:00,
2013-02-02 01:27:00,53.4,52.0,30.18,West,270,2.0,2.0,95,0.00,,,0.00,meteohub,2013-02-02 09:27:00,
2013-02-02 01:32:00,53.4,52.0,30.18,West,270,2.0,2.0,95,0.00,,,0.00,meteohub,2013-02-02 09:32:00,
2013-02-02 01:37:00,53.6,52.2,30.18,West,270,1.0,2.0,95,0.00,,,0.00,meteohub,2013-02-02 09:37:00,
2013-02-02 01:42:00,53.6,52.2,30.17,West,270,0.0,2.0,95,0.00,,,0.00,meteohub,2013-02-02 09:42:00,
2013-02-02 01:47:00,53.6,52.2,30.17,West,270,0.0,2.0,95,0.00,,,0.00,meteohub,2013-02-02 09:47:00,
2013-02-02 01:52:00,53.6,52.2,30.17,West,270,0.0,2.0,95,0.00,,,0.00,meteohub,2013-02-02 09:52:00,
2013-02-02 01:57:00,53.6,52.2,30.18,West,270,2.0,2.0,95,0.00,,,0.00,meteohub,2013-02-02 09:57:00,
2013-02-02 02:02:00,53.8,52.3,30.18,West,270,0.0,2.0,95,0.00,,,0.00,meteohub,2013-02-02 10:02:00,
2013-02-02 02:07:00,53.8,52.3,30.18,West,270,0.0,2.0,95,0.00,,,0.00,meteohub,2013-02-02 10:07:00,
2013-02-02 02:12:00,53.8,52.3,30.18,West,270,0.0,2.0,95,0.00,,,0.00,meteohub,2013-02-02 10:12:00,
2013-02-02 02:17:00,53.8,52.3,30.17,West,270,0.0,2.0,95,0.00,,,0.00,meteohub,2013-02-02 10:17:00,
2013-02-02 02:22:00,53.8,52.2,30.18,West,270,0.0,0.0,94,0.00,,,0.00,meteohub,2013-02-02 10:22:00,
2013-02-02 02:27:00,53.6,52.0,30.17,West,270,0.0,0.0,94,0.00,,,0.00,meteohub,2013-02-02 10:27:00,
2013-02-02 02:32:00,53.8,52.3,30.16,West,270,4.0,0.0,95,0.00,,,0.00,meteohub,2013-02-02 10:32:00,
2013-02-02 02:37:00,53.6,52.0,30.16,East,90,4.0,4.0,94,0.00,,,0.00,meteohub,2013-02-02 10:37:00,
2013-02-02 02:42:00,53.4,51.8,30.17,East,90,0.0,4.0,94,0.00,,,0.00,meteohub,2013-02-02 10:42:00,
2013-02-02 02:47:00,53.2,51.6,30.17,East,90,0.0,4.0,94,0.00,,,0.00,meteohub,2013-02-02 10:47:00,
2013-02-02 02:52:00,53.2,51.6,30.17,NE,45,3.0,4.0,94,0.00,,,0.00,meteohub,2013-02-02 10:52:00,
2013-02-02 02:57:00,53.6,52.5,30.18,West,270,2.0,4.0,96,0.00,,,0.00,meteohub,2013-02-02 10:57:00,
2013-02-02 03:02:00,53.8,52.3,30.18,West,270,3.0,4.0,95,0.00,,,0.00,meteohub,2013-02-02 11:02:00,
2013-02-02 03:07:00,53.6,52.0,30.18,West,270,1.0,4.0,94,0.00,,,0.00,meteohub,2013-02-02 11:07:00,
2013-02-02 03:12:00,53.4,51.8,30.17,West,270,0.0,4.0,94,0.00,,,0.00,meteohub,2013-02-02 11:12:00,
2013-02-02 03:17:00,53.4,51.8,30.17,West,270,0.0,4.0,94,0.00,,,0.00,meteohub,2013-02-02 11:17:00,
2013-02-02 03:22:00,53.2,51.6,30.17,West,270,0.0,2.0,94,0.00,,,0.00,meteohub,2013-02-02 11:22:00,
2013-02-02 03:27:00,52.9,51.3,30.18,West,270,2.0,2.0,94,0.00,,,0.00,meteohub,2013-02-02 11:27:00,
2013-02-02 03:32:00,53.1,51.6,30.18,WNW,293,2.0,2.0,95,0.00,,,0.00,meteohub,2013-02-02 11:32:00,
2013-02-02 03:37:00,53.1,51.6,30.17,WNW,293,0.0,3.0,95,0.00,,,0.00,meteohub,2013-02-02 11:37:00,
2013-02-02 03:42:00,53.1,51.6,30.17,WNW,293,0.0,3.0,95,0.00,,,0.00,meteohub,2013-02-02 11:42:00,
2013-02-02 03:47:00,53.1,51.6,30.17,WNW,293,0.0,3.0,95,0.00,,,0.00,meteohub,2013-02-02 11:47:00,
2013-02-02 03:52:00,52.9,51.4,30.17,WNW,293,0.0,1.0,95,0.00,,,0.00,meteohub,2013-02-02 11:52:00,
2013-02-02 03:57:00,52.9,51.4,30.17,WNW,293,0.0,1.0,95,0.00,,,0.00,meteohub,2013-02-02 11:57:00,
2013-02-02 04:02:00,52.7,51.3,30.17,WNW,293,0.0,1.0,95,0.00,,,0.00,meteohub,2013-02-02 12:02:00,
2013-02-02 04:07:00,52.5,51.4,30.17,NNW,338,1.0,1.0,96,0.00,,,0.00,meteohub,2013-02-02 12:07:00,
2013-02-02 04:12:00,52.3,51.3,30.17,North,0,0.0,1.0,96,0.00,,,0.00,meteohub,2013-02-02 12:12:00,
2013-02-02 04:17:00,52.2,51.1,30.17,North,0,0.0,1.0,96,0.00,,,0.00,meteohub,2013-02-02 12:17:00,
2013-02-02 04:22:00,52.2,51.1,30.17,North,0,2.0,2.0,96,0.00,,,0.00,meteohub,2013-02-02 12:22:00,
2013-02-02 04:27:00,52.2,51.1,30.17,North,0,2.0,3.0,96,0.00,,,0.00,meteohub,2013-02-02 12:27:00,
2013-02-02 04:32:00,52.5,51.4,30.17,North,0,1.0,3.0,96,0.00,,,0.00,meteohub,2013-02-02 12:32:00,
2013-02-02 04:37:00,52.5,51.4,30.18,North,0,2.0,3.0,96,0.00,,,0.00,meteohub,2013-02-02 12:37:00,
2013-02-02 04:42:00,52.9,52.0,30.17,SE,135,2.0,2.0,97,0.00,,,0.00,meteohub,2013-02-02 12:42:00,
2013-02-02 04:47:00,53.1,52.0,30.17,SSE,158,3.0,3.0,96,0.00,,,0.00,meteohub,2013-02-02 12:47:00,
2013-02-02 04:52:00,53.2,52.2,30.18,SE,135,2.0,3.0,96,0.00,,,0.00,meteohub,2013-02-02 12:52:00,
2013-02-02 04:57:00,53.4,52.3,30.17,SE,135,2.0,3.0,96,0.00,,,0.00,meteohub,2013-02-02 12:57:00,
2013-02-02 05:02:00,53.4,52.0,30.17,SE,135,0.0,3.0,95,0.00,,,0.00,meteohub,2013-02-02 13:02:00,
2013-02-02 05:07:00,53.2,51.8,30.17,SE,135,0.0,3.0,95,0.00,,,0.00,meteohub,2013-02-02 13:07:00,
2013-02-02 05:12:00,53.1,51.6,30.18,SE,135,0.0,2.0,95,0.00,,,0.00,meteohub,2013-02-02 13:12:00,
2013-02-02 05:17:00,53.1,51.6,30.18,SE,135,1.0,2.0,95,0.00,,,0.00,meteohub,2013-02-02 13:17:00,
2013-02-02 05:22:00,53.1,51.6,30.18,SE,135,0.0,2.0,95,0.00,,,0.00,meteohub,2013-02-02 13:22:00,
2013-02-02 05:27:00,53.1,52.0,30.18,SE,135,0.0,2.0,96,0.00,,,0.00,meteohub,2013-02-02 13:27:00,
2013-02-02 05:32:00,52.9,51.8,30.18,SE,135,0.0,2.0,96,0.00,,,0.00,meteohub,2013-02-02 13:32:00,
2013-02-02 05:37:00,52.9,51.8,30.18,SE,135,2.0,0.0,96,0.00,,,0.00,meteohub,2013-02-02 13:37:00,
2013-02-02 05:42:00,52.9,51.8,30.18,SE,135,0.0,2.0,96,0.00,,,0.00,meteohub,2013-02-02 13:42:00,
2013-02-02 05:47:00,52.7,51.6,30.18,SE,135,0.0,2.0,96,0.00,,,0.00,meteohub,2013-02-02 13:47:00,
2013-02-02 05:52:00,52.3,51.3,30.18,SE,135,0.0,2.0,96,0.00,,,0.00,meteohub,2013-02-02 13:52:00,
2013-02-02 05:57:00,52.3,51.3,30.17,SE,135,0.0,1.0,96,0.00,,,0.00,meteohub,2013-02-02 13:57:00,
2013-02-02 06:02:00,52.2,51.1,30.18,SE,135,0.0,0.0,96,0.00,,,0.00,meteohub,2013-02-02 14:02:00,
2013-02-02 06:07:00,52.2,51.1,30.18,SE,135,0.0,0.0,96,0.00,,,0.00,meteohub,2013-02-02 14:07:00,
2013-02-02 06:12:00,52.0,50.9,30.18,SE,135,0.0,0.0,96,0.00,,,0.00,meteohub,2013-02-02 14:12:00,
2013-02-02 06:17:00,52.0,51.1,30.18,SE,135,0.0,0.0,97,0.00,,,0.00,meteohub,2013-02-02 14:17:00,
2013-02-02 06:22:00,52.0,51.1,30.18,SE,135,0.0,0.0,97,0.00,,,0.00,meteohub,2013-02-02 14:22:00,
2013-02-02 06:27:00,51.8,50.9,30.19,SE,135,0.0,2.0,97,0.00,,,0.00,meteohub,2013-02-02 14:27:00,
2013-02-02 06:32:00,51.8,50.9,30.19,SE,135,0.0,2.0,97,0.00,,,0.00,meteohub,2013-02-02 14:32:00,
2013-02-02 06:37:00,51.6,50.7,30.19,SE,135,0.0,0.0,97,0.00,,,0.00,meteohub,2013-02-02 14:37:00,
2013-02-02 06:42:00,51.8,50.9,30.19,SE,135,0.0,0.0,97,0.00,,,0.00,meteohub,2013-02-02 14:42:00,
2013-02-02 06:47:00,51.8,51.3,30.18,SE,135,1.0,1.0,98,0.00,,,0.00,meteohub,2013-02-02 14:47:00,
2013-02-02 06:52:00,51.8,51.3,30.18,SE,135,1.0,1.0,98,0.00,,,0.00,meteohub,2013-02-02 14:52:00,
2013-02-02 06:57:00,52.3,51.8,30.19,East,90,2.0,2.0,98,0.00,,,0.00,meteohub,2013-02-02 14:57:00,
2013-02-02 07:02:00,52.5,51.6,30.19,East,90,3.0,3.0,97,0.00,,,0.00,meteohub,2013-02-02 15:02:00,
2013-02-02 07:07:00,52.7,51.6,30.19,SE,135,1.0,3.0,96,0.00,,,0.00,meteohub,2013-02-02 15:07:00,
2013-02-02 07:12:00,52.9,51.4,30.19,SE,135,2.0,3.0,95,0.00,,,0.00,meteohub,2013-02-02 15:12:00,
2013-02-02 07:17:00,53.1,51.4,30.19,SE,135,1.0,3.0,94,0.00,,,0.00,meteohub,2013-02-02 15:17:00,
2013-02-02 07:22:00,53.2,51.6,30.19,SE,135,0.0,3.0,94,0.00,,,0.00,meteohub,2013-02-02 15:22:00,
2013-02-02 07:27:00,53.4,51.4,30.19,SE,135,0.0,2.0,93,0.00,,,0.00,meteohub,2013-02-02 15:27:00,
2013-02-02 07:32:00,53.8,51.4,30.19,SE,135,0.0,1.0,92,0.00,,,0.00,meteohub,2013-02-02 15:32:00,
2013-02-02 07:37:00,54.0,51.6,30.19,SE,135,0.0,0.0,92,0.00,,,0.00,meteohub,2013-02-02 15:37:00,
2013-02-02 07:42:00,54.3,51.8,30.19,SE,135,0.0,1.0,91,0.00,,,0.00,meteohub,2013-02-02 15:42:00,
2013-02-02 07:47:00,54.5,52.0,30.19,SE,135,2.0,2.0,91,0.00,,,0.00,meteohub,2013-02-02 15:47:00,
2013-02-02 07:52:00,54.9,52.0,30.19,SE,135,0.0,2.0,90,0.00,,,0.00,meteohub,2013-02-02 15:52:00,
2013-02-02 07:57:00,55.4,52.5,30.20,SE,135,0.0,2.0,90,0.00,,,0.00,meteohub,2013-02-02 15:57:00,
2013-02-02 08:02:00,55.6,52.3,30.19,SE,135,0.0,2.0,89,0.00,,,0.00,meteohub,2013-02-02 16:02:00,
2013-02-02 08:07:00,55.9,52.5,30.20,SE,135,1.0,1.0,88,0.00,,,0.00,meteohub,2013-02-02 16:07:00,
2013-02-02 08:12:00,56.1,52.3,30.20,SE,135,2.0,2.0,87,0.00,,,0.00,meteohub,2013-02-02 16:12:00,
2013-02-02 08:17:00,56.5,52.3,30.20,East,90,2.0,2.0,86,0.00,,,0.00,meteohub,2013-02-02 16:17:00,
2013-02-02 08:22:00,56.8,52.3,30.20,NE,45,2.0,2.0,85,0.00,,,0.00,meteohub,2013-02-02 16:22:00,
2013-02-02 08:27:00,57.2,52.2,30.20,NE,45,2.0,2.0,83,0.00,,,0.00,meteohub,2013-02-02 16:27:00,
2013-02-02 08:32:00,57.7,52.7,30.20,NE,45,2.0,2.0,83,0.00,,,0.00,meteohub,2013-02-02 16:32:00,
2013-02-02 08:37:00,58.1,52.7,30.20,NE,45,1.0,3.0,82,0.00,,,0.00,meteohub,2013-02-02 16:37:00,
2013-02-02 08:42:00,58.3,52.9,30.20,NE,45,2.0,3.0,82,0.00,,,0.00,meteohub,2013-02-02 16:42:00,
2013-02-02 08:47:00,58.6,53.2,30.20,NE,45,0.0,4.0,82,0.00,,,0.00,meteohub,2013-02-02 16:47:00,
2013-02-02 08:52:00,59.7,54.1,30.20,NE,45,0.0,4.0,82,0.00,,,0.00,meteohub,2013-02-02 16:52:00,
2013-02-02 08:57:00,60.6,53.8,30.21,NE,45,2.0,3.0,78,0.00,,,0.00,meteohub,2013-02-02 16:57:00,
2013-02-02 09:02:00,61.2,54.0,30.20,NE,45,2.0,2.0,77,0.00,,,0.00,meteohub,2013-02-02 17:02:00,
2013-02-02 09:07:00,61.3,54.1,30.21,NE,45,0.0,2.0,77,0.00,,,0.00,meteohub,2013-02-02 17:07:00,
2013-02-02 09:12:00,61.5,52.7,30.21,NW,315,2.0,2.0,73,0.00,,,0.00,meteohub,2013-02-02 17:12:00,
2013-02-02 09:17:00,61.9,52.7,30.21,North,0,2.0,4.0,72,0.00,,,0.00,meteohub,2013-02-02 17:17:00,
2013-02-02 09:22:00,62.6,53.1,30.21,North,0,2.0,4.0,71,0.00,,,0.00,meteohub,2013-02-02 17:22:00,
2013-02-02 09:27:00,63.0,53.1,30.21,North,0,2.0,4.0,70,0.00,,,0.00,meteohub,2013-02-02 17:27:00,
2013-02-02 09:32:00,63.9,52.3,30.20,North,0,2.0,2.0,66,0.00,,,0.00,meteohub,2013-02-02 17:32:00,
2013-02-02 09:37:00,64.9,52.9,30.20,East,90,2.0,2.0,65,0.00,,,0.00,meteohub,2013-02-02 17:37:00,
2013-02-02 09:42:00,66.2,52.0,30.20,NE,45,3.0,3.0,60,0.00,,,0.00,meteohub,2013-02-02 17:42:00,
2013-02-02 09:47:00,67.1,51.4,30.20,ESE,113,2.0,3.0,57,0.00,,,0.00,meteohub,2013-02-02 17:47:00,
2013-02-02 09:52:00,67.5,47.1,30.20,East,90,4.0,4.0,48,0.00,,,0.00,meteohub,2013-02-02 17:52:00,
2013-02-02 09:57:00,67.5,48.2,30.20,SE,135,2.0,5.0,50,0.00,,,0.00,meteohub,2013-02-02 17:57:00,
2013-02-02 10:02:00,68.0,48.2,30.20,South,180,2.0,5.0,49,0.00,,,0.00,meteohub,2013-02-02 18:02:00,
2013-02-02 10:07:00,68.4,48.4,30.20,SE,135,4.0,5.0,49,0.00,,,0.00,meteohub,2013-02-02 18:07:00,
2013-02-02 10:12:00,69.1,48.0,30.20,SE,135,4.0,5.0,47,0.00,,,0.00,meteohub,2013-02-02 18:12:00,
2013-02-02 10:17:00,69.6,47.3,30.20,South,180,2.0,5.0,45,0.00,,,0.00,meteohub,2013-02-02 18:17:00,
2013-02-02 10:22:00,70.7,48.4,30.20,SE,135,4.0,4.0,45,0.00,,,0.00,meteohub,2013-02-02 18:22:00,
2013-02-02 10:27:00,72.0,48.9,30.20,East,90,2.0,4.0,44,0.00,,,0.00,meteohub,2013-02-02 18:27:00,
2013-02-02 10:32:00,72.1,48.4,30.20,East,90,3.0,4.0,43,0.00,,,0.00,meteohub,2013-02-02 18:32:00,
2013-02-02 10:37:00,71.8,48.0,30.20,SE,135,2.0,4.0,43,0.00,,,0.00,meteohub,2013-02-02 18:37:00,
2013-02-02 10:42:00,71.2,47.7,30.20,East,90,3.0,4.0,43,0.00,,,0.00,meteohub,2013-02-02 18:42:00,
2013-02-02 10:47:00,71.4,47.8,30.19,ESE,113,2.0,4.0,43,0.00,,,0.00,meteohub,2013-02-02 18:47:00,
2013-02-02 10:52:00,71.6,47.8,30.20,East,90,2.0,4.0,43,0.00,,,0.00,meteohub,2013-02-02 18:52:00,
2013-02-02 10:57:00,72.0,48.2,30.19,East,90,2.0,4.0,43,0.00,,,0.00,meteohub,2013-02-02 18:57:00,
2013-02-02 11:02:00,72.3,47.3,30.20,East,90,2.0,4.0,41,0.00,,,0.00,meteohub,2013-02-02 19:02:00,
2013-02-02 11:07:00,73.0,47.3,30.19,East,90,2.0,4.0,40,0.00,,,0.00,meteohub,2013-02-02 19:07:00,
2013-02-02 11:12:00,73.4,47.7,30.19,East,90,2.0,3.0,40,0.00,,,0.00,meteohub,2013-02-02 19:12:00,
2013-02-02 11:17:00,74.1,48.2,30.19,East,90,1.0,2.0,40,0.00,,,0.00,meteohub,2013-02-02 19:17:00,
2013-02-02 11:22:00,75.2,47.8,30.19,North,0,2.0,2.0,38,0.00,,,0.00,meteohub,2013-02-02 19:22:00,
2013-02-02 11:27:00,75.9,47.1,30.19,North,0,3.0,3.0,36,0.00,,,0.00,meteohub,2013-02-02 19:27:00,
2013-02-02 11:32:00,76.3,48.7,30.18,North,0,2.0,3.0,38,0.00,,,0.00,meteohub,2013-02-02 19:32:00,
2013-02-02 11:37:00,76.6,47.7,30.18,NW,315,2.0,4.0,36,0.00,,,0.00,meteohub,2013-02-02 19:37:00,
2013-02-02 11:42:00,76.8,47.1,30.18,North,0,2.0,4.0,35,0.00,,,0.00,meteohub,2013-02-02 19:42:00,
2013-02-02 11:47:00,77.0,47.3,30.18,North,0,2.0,4.0,35,0.00,,,0.00,meteohub,2013-02-02 19:47:00,
2013-02-02 11:52:00,76.6,46.2,30.18,North,0,2.0,3.0,34,0.00,,,0.00,meteohub,2013-02-02 19:52:00,
2013-02-02 11:57:00,77.4,46.8,30.17,North,0,2.0,3.0,34,0.00,,,0.00,meteohub,2013-02-02 19:57:00,
2013-02-02 12:02:00,78.3,46.0,30.17,North,0,2.0,3.0,32,0.00,,,0.00,meteohub,2013-02-02 20:02:00,
2013-02-02 12:07:00,78.6,44.6,30.16,East,90,3.0,3.0,30,0.00,,,0.00,meteohub,2013-02-02 20:07:00,
2013-02-02 12:12:00,78.8,45.7,30.16,South,180,2.0,3.0,31,0.00,,,0.00,meteohub,2013-02-02 20:12:00,
2013-02-02 12:17:00,80.2,45.1,30.16,South,180,2.0,3.0,29,0.00,,,0.00,meteohub,2013-02-02 20:17:00,
2013-02-02 12:22:00,80.6,44.4,30.16,West,270,4.0,4.0,28,0.00,,,0.00,meteohub,2013-02-02 20:22:00,
2013-02-02 12:27:00,78.4,45.3,30.15,WNW,293,2.0,5.0,31,0.00,,,0.00,meteohub,2013-02-02 20:27:00,
2013-02-02 12:32:00,74.8,56.1,30.15,West,270,11.0,11.0,52,0.00,,,0.00,meteohub,2013-02-02 20:32:00,
2013-02-02 12:37:00,72.1,55.0,30.15,NW,315,8.0,11.0,55,0.00,,,0.00,meteohub,2013-02-02 20:37:00,
2013-02-02 12:42:00,71.1,54.5,30.15,WNW,293,7.0,11.0,56,0.00,,,0.00,meteohub,2013-02-02 20:42:00,
2013-02-02 12:47:00,71.1,53.6,30.14,NW,315,6.0,11.0,54,0.00,,,0.00,meteohub,2013-02-02 20:47:00,
2013-02-02 12:52:00,71.1,53.6,30.14,NW,315,7.0,9.0,54,0.00,,,0.00,meteohub,2013-02-02 20:52:00,
2013-02-02 12:57:00,71.2,53.2,30.15,West,270,4.0,8.0,53,0.00,,,0.00,meteohub,2013-02-02 20:57:00,
2013-02-02 13:02:00,71.1,53.6,30.14,West,270,4.0,8.0,54,0.00,,,0.00,meteohub,2013-02-02 21:02:00,
2013-02-02 13:07:00,71.1,53.6,30.14,West,270,4.0,7.0,54,0.00,,,0.00,meteohub,2013-02-02 21:07:00,
2013-02-02 13:12:00,71.1,53.6,30.14,NW,315,4.0,6.0,54,0.00,,,0.00,meteohub,2013-02-02 21:12:00,
2013-02-02 13:17:00,71.4,53.4,30.14,West,270,4.0,6.0,53,0.00,,,0.00,meteohub,2013-02-02 21:17:00,
2013-02-02 13:23:00,71.2,53.8,30.14,West,270,3.0,5.0,54,0.00,,,0.00,meteohub,2013-02-02 21:23:00,
2013-02-02 13:28:00,71.1,52.0,30.13,West,270,6.0,6.0,51,0.00,,,0.00,meteohub,2013-02-02 21:28:00,
2013-02-02 13:33:00,70.2,51.3,30.13,West,270,5.0,6.0,51,0.00,,,0.00,meteohub,2013-02-02 21:33:00,
2013-02-02 13:38:00,69.3,50.9,30.13,West,270,7.0,8.0,52,0.00,,,0.00,meteohub,2013-02-02 21:38:00,
2013-02-02 13:43:00,68.7,51.4,30.13,NW,315,9.0,9.0,54,0.00,,,0.00,meteohub,2013-02-02 21:43:00,
2013-02-02 13:48:00,68.2,51.4,30.13,NW,315,7.0,9.0,55,0.00,,,0.00,meteohub,2013-02-02 21:48:00,
2013-02-02 13:53:00,68.2,53.2,30.13,WNW,293,6.0,9.0,59,0.00,,,0.00,meteohub,2013-02-02 21:53:00,
2013-02-02 13:58:00,68.5,52.7,30.12,WNW,293,7.0,9.0,57,0.00,,,0.00,meteohub,2013-02-02 21:58:00,
2013-02-02 14:03:00,68.7,52.3,30.13,NW,315,7.0,9.0,56,0.00,,,0.00,meteohub,2013-02-02 22:03:00,
2013-02-02 14:08:00,68.2,51.8,30.12,NW,315,4.0,7.0,56,0.00,,,0.00,meteohub,2013-02-02 22:08:00,
2013-02-02 14:13:00,68.4,51.6,30.12,NW,315,4.0,7.0,55,0.00,,,0.00,meteohub,2013-02-02 22:13:00,
2013-02-02 14:18:00,68.5,51.8,30.12,NW,315,4.0,7.0,55,0.00,,,0.00,meteohub,2013-02-02 22:18:00,
2013-02-02 14:23:00,68.4,51.6,30.12,NW,315,4.0,6.0,55,0.00,,,0.00,meteohub,2013-02-02 22:23:00,
2013-02-02 14:28:00,68.4,51.6,30.12,NW,315,2.0,5.0,55,0.00,,,0.00,meteohub,2013-02-02 22:28:00,
2013-02-02 14:33:00,68.7,52.0,30.12,NW,315,3.0,5.0,55,0.00,,,0.00,meteohub,2013-02-02 22:33:00,
2013-02-02 14:38:00,68.7,52.0,30.12,West,270,1.0,5.0,55,0.00,,,0.00,meteohub,2013-02-02 22:38:00,
2013-02-02 14:43:00,68.9,52.5,30.11,NW,315,2.0,4.0,56,0.00,,,0.00,meteohub,2013-02-02 22:43:00,
2013-02-02 14:48:00,68.9,52.5,30.11,NW,315,2.0,3.0,56,0.00,,,0.00,meteohub,2013-02-02 22:48:00,
2013-02-02 14:53:00,69.3,52.3,30.12,West,270,2.0,3.0,55,0.00,,,0.00,meteohub,2013-02-02 22:53:00,
2013-02-02 14:58:00,69.1,51.3,30.12,West,270,3.0,3.0,53,0.00,,,0.00,meteohub,2013-02-02 22:58:00,
2013-02-02 15:03:00,68.7,53.8,30.12,WSW,248,4.0,4.0,59,0.00,,,0.00,meteohub,2013-02-02 23:03:00,
2013-02-02 15:08:00,68.2,55.0,30.11,West,270,4.0,7.0,63,0.00,,,0.00,meteohub,2013-02-02 23:08:00,
2013-02-02 15:13:00,68.0,55.4,30.12,West,270,3.0,7.0,64,0.00,,,0.00,meteohub,2013-02-02 23:13:00,
2013-02-02 15:18:00,67.8,54.3,30.11,West,270,3.0,7.0,62,0.00,,,0.00,meteohub,2013-02-02 23:18:00,
2013-02-02 15:23:00,67.8,53.4,30.12,West,270,3.0,7.0,60,0.00,,,0.00,meteohub,2013-02-02 23:23:00,
2013-02-02 15:28:00,67.8,53.4,30.12,West,270,4.0,4.0,60,0.00,,,0.00,meteohub,2013-02-02 23:28:00,
2013-02-02 15:33:00,67.5,55.8,30.12,NW,315,4.0,4.0,66,0.00,,,0.00,meteohub,2013-02-02 23:33:00,
2013-02-02 15:38:00,66.9,55.9,30.12,West,270,4.0,5.0,68,0.00,,,0.00,meteohub,2013-02-02 23:38:00,
2013-02-02 15:43:00,66.0,54.7,30.12,West,270,3.0,6.0,67,0.00,,,0.00,meteohub,2013-02-02 23:43:00,
2013-02-02 15:48:00,65.7,55.6,30.13,West,270,4.0,8.0,70,0.00,,,0.00,meteohub,2013-02-02 23:48:00,
2013-02-02 15:53:00,65.5,55.4,30.13,West,270,8.0,8.0,70,0.00,,,0.00,meteohub,2013-02-02 23:53:00,
2013-02-02 15:58:00,65.7,54.0,30.14,WNW,293,5.0,8.0,66,0.00,,,0.00,meteohub,2013-02-02 23:58:00,
2013-02-02 16:03:00,65.8,53.8,30.14,West,270,8.0,8.0,65,0.00,,,0.00,meteohub,2013-02-03 00:03:00,
2013-02-02 16:08:00,66.0,54.0,30.14,North,0,4.0,8.0,65,0.00,,,0.00,meteohub,2013-02-03 00:08:00,
2013-02-02 16:13:00,66.0,54.3,30.14,NW,315,7.0,8.0,66,0.00,,,0.00,meteohub,2013-02-03 00:13:00,
2013-02-02 16:18:00,66.0,54.7,30.14,WNW,293,4.0,8.0,67,0.00,,,0.00,meteohub,2013-02-03 00:18:00,
2013-02-02 16:23:00,66.2,54.5,30.14,NNW,338,5.0,8.0,66,0.00,,,0.00,meteohub,2013-02-03 00:23:00,
2013-02-02 16:28:00,66.6,53.1,30.14,North,0,4.0,7.0,62,0.00,,,0.00,meteohub,2013-02-03 00:28:00,
2013-02-02 16:33:00,67.1,49.5,30.14,North,0,2.0,6.0,53,0.00,,,0.00,meteohub,2013-02-03 00:33:00,
2013-02-02 16:38:00,67.5,47.7,30.14,NE,45,4.0,6.0,49,0.00,,,0.00,meteohub,2013-02-03 00:38:00,
2013-02-02 16:43:00,67.6,46.8,30.14,NE,45,4.0,6.0,47,0.00,,,0.00,meteohub,2013-02-03 00:43:00,
2013-02-02 16:48:00,67.5,46.0,30.14,NNE,23,3.0,6.0,46,0.00,,,0.00,meteohub,2013-02-03 00:48:00,
2013-02-02 16:53:00,67.5,45.3,30.14,North,0,3.0,4.0,45,0.00,,,0.00,meteohub,2013-02-03 00:53:00,
2013-02-02 16:58:00,67.5,45.3,30.14,North,0,3.0,4.0,45,0.00,,,0.00,meteohub,2013-02-03 00:58:00,
2013-02-02 17:03:00,67.3,46.4,30.14,North,0,1.0,4.0,47,0.00,,,0.00,meteohub,2013-02-03 01:03:00,
2013-02-02 17:08:00,67.1,45.7,30.14,North,0,2.0,4.0,46,0.00,,,0.00,meteohub,2013-02-03 01:08:00,
2013-02-02 17:13:00,66.9,46.0,30.13,North,0,0.0,3.0,47,0.00,,,0.00,meteohub,2013-02-03 01:13:00,
2013-02-02 17:18:00,66.7,46.4,30.14,North,0,0.0,2.0,48,0.00,,,0.00,meteohub,2013-02-03 01:18:00,
2013-02-02 17:23:00,66.6,45.7,30.13,North,0,0.0,2.0,47,0.00,,,0.00,meteohub,2013-02-03 01:23:00,
2013-02-02 17:28:00,66.6,45.7,30.13,North,0,2.0,2.0,47,0.00,,,0.00,meteohub,2013-02-03 01:28:00,
2013-02-02 17:33:00,66.6,45.7,30.14,South,180,2.0,2.0,47,0.00,,,0.00,meteohub,2013-02-03 01:33:00,
2013-02-02 17:38:00,66.4,46.0,30.13,South,180,1.0,2.0,48,0.00,,,0.00,meteohub,2013-02-03 01:38:00,
2013-02-02 17:43:00,66.2,45.9,30.13,South,180,0.0,2.0,48,0.00,,,0.00,meteohub,2013-02-03 01:43:00,
2013-02-02 17:48:00,66.2,45.9,30.13,South,180,0.0,2.0,48,0.00,,,0.00,meteohub,2013-02-03 01:48:00,
2013-02-02 17:53:00,66.2,46.4,30.13,South,180,2.0,2.0,49,0.00,,,0.00,meteohub,2013-02-03 01:53:00,
2013-02-02 17:58:00,66.0,46.4,30.13,South,180,1.0,2.0,49,0.00,,,0.00,meteohub,2013-02-03 01:58:00,
2013-02-02 18:03:00,65.8,45.7,30.14,South,180,1.0,2.0,48,0.00,,,0.00,meteohub,2013-02-03 02:03:00,
2013-02-02 18:08:00,65.8,45.7,30.14,South,180,0.0,2.0,48,0.00,,,0.00,meteohub,2013-02-03 02:08:00,
2013-02-02 18:13:00,65.7,46.0,30.14,South,180,0.0,2.0,49,0.00,,,0.00,meteohub,2013-02-03 02:13:00,
2013-02-02 18:18:00,65.5,46.4,30.15,South,180,0.0,2.0,50,0.00,,,0.00,meteohub,2013-02-03 02:18:00,
2013-02-02 18:23:00,65.5,47.5,30.15,West,270,1.0,1.0,52,0.00,,,0.00,meteohub,2013-02-03 02:23:00,
2013-02-02 18:28:00,65.5,48.4,30.15,WNW,293,5.0,5.0,54,0.00,,,0.00,meteohub,2013-02-03 02:28:00,
2013-02-02 18:33:00,65.3,49.3,30.15,NW,315,2.0,5.0,56,0.00,,,0.00,meteohub,2013-02-03 02:33:00,
2013-02-02 18:38:00,64.9,49.8,30.15,WNW,293,2.0,5.0,58,0.00,,,0.00,meteohub,2013-02-03 02:38:00,
2013-02-02 18:44:00,64.6,50.0,30.16,WNW,293,2.0,5.0,59,0.00,,,0.00,meteohub,2013-02-03 02:44:00,
2013-02-02 18:49:00,64.4,50.7,30.15,West,270,3.0,4.0,61,0.00,,,0.00,meteohub,2013-02-03 02:49:00,
2013-02-02 18:54:00,64.2,51.4,30.16,NW,315,2.0,4.0,63,0.00,,,0.00,meteohub,2013-02-03 02:54:00,
2013-02-02 18:59:00,63.7,52.5,30.16,South,180,3.0,3.0,67,0.00,,,0.00,meteohub,2013-02-03 02:59:00,
2013-02-02 19:04:00,62.8,54.3,30.16,West,270,4.0,4.0,74,0.00,,,0.00,meteohub,2013-02-03 03:04:00,
2013-02-02 19:09:00,61.9,54.9,30.16,West,270,6.0,6.0,78,0.00,,,0.00,meteohub,2013-02-03 03:09:00,
2013-02-02 19:14:00,61.3,54.9,30.16,SW,225,2.0,6.0,79,0.00,,,0.00,meteohub,2013-02-03 03:14:00,
2013-02-02 19:19:00,61.0,55.0,30.16,West,270,4.0,6.0,81,0.00,,,0.00,meteohub,2013-02-03 03:19:00,
2013-02-02 19:24:00,60.8,55.2,30.16,SW,225,5.0,6.0,82,0.00,,,0.00,meteohub,2013-02-03 03:24:00,
2013-02-02 19:29:00,60.6,55.0,30.16,NW,315,3.0,5.0,82,0.00,,,0.00,meteohub,2013-02-03 03:29:00,
2013-02-02 19:34:00,60.8,55.2,30.16,West,270,4.0,5.0,82,0.00,,,0.00,meteohub,2013-02-03 03:34:00,
2013-02-02 19:39:00,60.6,55.4,30.16,West,270,4.0,5.0,83,0.00,,,0.00,meteohub,2013-02-03 03:39:00,
2013-02-02 19:44:00,60.6,55.4,30.16,West,270,3.0,5.0,83,0.00,,,0.00,meteohub,2013-02-03 03:44:00,
2013-02-02 19:49:00,60.6,55.4,30.16,West,270,3.0,4.0,83,0.00,,,0.00,meteohub,2013-02-03 03:49:00,
2013-02-02 19:54:00,60.6,55.8,30.16,West,270,3.0,4.0,84,0.00,,,0.00,meteohub,2013-02-03 03:54:00,
2013-02-02 19:59:00,60.4,55.6,30.16,West,270,4.0,4.0,84,0.00,,,0.00,meteohub,2013-02-03 03:59:00,
2013-02-02 20:04:00,60.4,55.6,30.16,West,270,4.0,5.0,84,0.00,,,0.00,meteohub,2013-02-03 04:04:00,
2013-02-02 20:09:00,60.4,55.2,30.16,NW,315,4.0,5.0,83,0.00,,,0.00,meteohub,2013-02-03 04:09:00,
2013-02-02 20:14:00,60.4,54.9,30.16,NW,315,2.0,5.0,82,0.00,,,0.00,meteohub,2013-02-03 04:14:00,
2013-02-02 20:19:00,60.8,54.9,30.16,West,270,3.0,5.0,81,0.00,,,0.00,meteohub,2013-02-03 04:19:00,
2013-02-02 20:24:00,60.6,54.5,30.16,West,270,2.0,5.0,80,0.00,,,0.00,meteohub,2013-02-03 04:24:00,
2013-02-02 20:29:00,60.6,54.5,30.16,West,270,2.0,4.0,80,0.00,,,0.00,meteohub,2013-02-03 04:29:00,
2013-02-02 20:34:00,60.6,54.5,30.16,West,270,0.0,4.0,80,0.00,,,0.00,meteohub,2013-02-03 04:34:00,
2013-02-02 20:39:00,60.6,54.7,30.16,West,270,2.0,3.0,81,0.00,,,0.00,meteohub,2013-02-03 04:39:00,
2013-02-02 20:44:00,60.3,54.7,30.16,West,270,3.0,3.0,82,0.00,,,0.00,meteohub,2013-02-03 04:44:00,
2013-02-02 20:49:00,60.1,54.9,30.16,West,270,3.0,4.0,83,0.00,,,0.00,meteohub,2013-02-03 04:49:00,
2013-02-02 20:54:00,60.1,55.2,30.16,West,270,4.0,4.0,84,0.00,,,0.00,meteohub,2013-02-03 04:54:00,
2013-02-02 20:59:00,59.9,55.4,30.16,West,270,3.0,5.0,85,0.00,,,0.00,meteohub,2013-02-03 04:59:00,
2013-02-02 21:00:00,59.9,55.4,30.16,West,270,2.0,5.0,85,0.00,,,0.00,meteohub,2013-02-03 05:00:00,
2013-02-02 21:01:00,59.9,55.4,30.16,West,270,2.0,5.0,85,0.00,,,0.00,meteohub,2013-02-03 05:01:00,
2013-02-02 21:03:00,59.7,55.6,30.16,West,270,4.0,5.0,86,0.00,,,0.00,meteohub,2013-02-03 05:03:00,
2013-02-02 21:08:00,59.7,55.6,30.16,NW,315,2.0,5.0,86,0.00,,,0.00,meteohub,2013-02-03 05:08:00,
2013-02-02 21:13:00,59.9,55.4,30.16,West,270,2.0,4.0,85,0.00,,,0.00,meteohub,2013-02-03 05:13:00,
2013-02-02 21:18:00,60.3,55.4,30.17,NW,315,2.0,4.0,84,0.00,,,0.00,meteohub,2013-02-03 05:18:00,
2013-02-02 21:23:00,60.4,54.9,30.17,NW,315,4.0,4.0,82,0.00,,,0.00,meteohub,2013-02-03 05:23:00,
2013-02-02 21:28:00,60.4,54.9,30.17,West,270,1.0,4.0,82,0.00,,,0.00,meteohub,2013-02-03 05:28:00,
2013-02-02 21:33:00,60.4,54.5,30.16,West,270,0.0,4.0,81,0.00,,,0.00,meteohub,2013-02-03 05:33:00,
2013-02-02 21:38:00,60.3,54.3,30.16,West,270,0.0,4.0,81,0.00,,,0.00,meteohub,2013-02-03 05:38:00,
2013-02-02 21:43:00,60.3,54.7,30.16,West,270,0.0,3.0,82,0.00,,,0.00,meteohub,2013-02-03 05:43:00,
2013-02-02 21:48:00,60.3,55.0,30.16,West,270,2.0,2.0,83,0.00,,,0.00,meteohub,2013-02-03 05:48:00,
2013-02-02 21:53:00,60.3,55.0,30.16,West,270,1.0,2.0,83,0.00,,,0.00,meteohub,2013-02-03 05:53:00,
2013-02-02 21:58:00,60.3,55.0,30.16,West,270,0.0,2.0,83,0.00,,,0.00,meteohub,2013-02-03 05:58:00,
2013-02-02 22:03:00,60.1,55.6,30.16,West,270,2.0,3.0,85,0.00,,,0.00,meteohub,2013-02-03 06:03:00,
2013-02-02 22:08:00,60.1,55.6,30.17,West,270,2.0,3.0,85,0.00,,,0.00,meteohub,2013-02-03 06:08:00,
2013-02-02 22:13:00,60.1,55.6,30.16,West,270,2.0,3.0,85,0.00,,,0.00,meteohub,2013-02-03 06:13:00,
2013-02-02 22:18:00,59.9,55.4,30.16,West,270,0.0,3.0,85,0.00,,,0.00,meteohub,2013-02-03 06:18:00,
2013-02-02 22:23:00,59.7,55.2,30.16,West,270,0.0,2.0,85,0.00,,,0.00,meteohub,2013-02-03 06:23:00,
2013-02-02 22:28:00,59.7,55.6,30.16,West,270,1.0,2.0,86,0.00,,,0.00,meteohub,2013-02-03 06:28:00,
2013-02-02 22:33:00,59.7,55.8,30.16,SSE,158,3.0,3.0,87,0.00,,,0.00,meteohub,2013-02-03 06:33:00,
2013-02-02 22:38:00,59.7,56.5,30.16,SE,135,2.0,2.0,89,0.00,,,0.00,meteohub,2013-02-03 06:38:00,
2013-02-02 22:43:00,59.5,56.3,30.16,SE,135,1.0,3.0,89,0.00,,,0.00,meteohub,2013-02-03 06:43:00,
2013-02-02 22:48:00,59.5,56.3,30.16,SE,135,0.0,3.0,89,0.00,,,0.00,meteohub,2013-02-03 06:48:00,
2013-02-02 22:53:00,59.7,57.0,30.16,SSE,158,3.0,3.0,91,0.00,,,0.00,meteohub,2013-02-03 06:53:00,
2013-02-02 22:58:00,59.5,56.8,30.16,NE,45,1.0,3.0,91,0.00,,,0.00,meteohub,2013-02-03 06:58:00,
2013-02-02 23:03:00,59.7,57.0,30.16,SSE,158,1.0,3.0,91,0.00,,,0.00,meteohub,2013-02-03 07:03:00,
2013-02-02 23:08:00,59.7,56.8,30.16,SE,135,0.0,3.0,90,0.00,,,0.00,meteohub,2013-02-03 07:08:00,
2013-02-02 23:13:00,59.7,56.8,30.16,SE,135,0.0,3.0,90,0.00,,,0.00,meteohub,2013-02-03 07:13:00,
2013-02-02 23:18:00,59.9,57.0,30.16,East,90,4.0,4.0,90,0.00,,,0.00,meteohub,2013-02-03 07:18:00,
2013-02-02 23:23:00,59.9,57.0,30.16,East,90,4.0,6.0,90,0.00,,,0.00,meteohub,2013-02-03 07:23:00,
2013-02-02 23:28:00,59.9,57.0,30.16,NE,45,3.0,6.0,90,0.00,,,0.00,meteohub,2013-02-03 07:28:00,
2013-02-02 23:33:00,59.5,56.8,30.16,NE,45,2.0,6.0,91,0.00,,,0.00,meteohub,2013-02-03 07:33:00,
2013-02-02 23:38:00,59.5,56.8,30.15,NE,45,2.0,4.0,91,0.00,,,0.00,meteohub,2013-02-03 07:38:00,
2013-02-02 23:43:00,59.5,56.8,30.16,NE,45,1.0,3.0,91,0.00,,,0.00,meteohub,2013-02-03 07:43:00,
2013-02-02 23:48:00,59.7,57.0,30.16,NE,45,0.0,3.0,91,0.00,,,0.00,meteohub,2013-02-03 07:48:00,
2013-02-02 23:53:00,59.7,57.0,30.16,NE,45,0.0,3.0,91,0.00,,,0.00,meteohub,2013-02-03 07:53:00,
2013-02-02 23:58:00,59.7,57.0,30.16,NE,45,1.0,2.0,91,0.00,,,0.00,meteohub,2013-02-03 07:58:00,